Flag for Canada Weather past 2 weeks in Grande Prairie, Alberta, Canada

Now
54 °F

Passing clouds.


Feels Like: 54 °F
Forecast: 56 / 78 °F
Wind: No wind

Location: Grande Prairie

Current Time: Jul 31, 2015 at 4:27:03 AM

Latest Report: Jul 31, 2015 at 4:00 AM


Visibility: 25 mi

Pressure: 30.11 "Hg (27.83 "Hg at 657m altitude)

Humidity: 72%

Dew point: 45 °F

Location of Grande PrairieLocation

Historic Weather in Grande Prairie — Graph

°F

Grande Prairie temperature yesterday

Maximum temperature yesterday: 75 °F (at 5:00 PM)
Minimum temperature yesterday: 48 °F (at 5:00 AM)
Average temperature yesterday: 63 °F

Past Weeks' High & Low Weather Summary

 TemperatureHumidityPressure
High82 °F (Jul 18, 5:00 PM)100% (Jul 21, 3:00 AM)30.19 "Hg (Jul 21, 3:00 AM)
Low45 °F (Jul 27, 5:00 AM)27% (Jul 30, 5:00 PM)29.67 "Hg (Jul 22, 6:00 AM)
Average61 °F60%29.91 "Hg
* Reported Jul 16 3:00 AM — Jul 31 3:00 AM, Grande Prairie, Weather by CustomWeather, © 2015

Note: Actual official high and low records may vary slightly from our data, if they occured in-between our weather recording intervals... More about our weather records

Advertising

Grande Prairie weather history for previous 24 hours

 ConditionsComfort  
Time TempWeatherWind HumidityBarometerVisibility
3:00 AM
Fri, Jul 31
57 °FPassing clouds.2 mph63%30.11 "Hg25 mi
2:00 AM55 °FPassing clouds.2 mph67%30.11 "Hg25 mi
1:00 AM57 °FPassing clouds.7 mph63%30.11 "Hg25 mi
12:00 AM63 °FPassing clouds.5 mph49%30.11 "Hg25 mi
11:00 PM
Thu, Jul 30
61 °FPartly sunny.5 mph59%30.12 "Hg25 mi
10:00 PM66 °FPartly sunny.7 mph43%30.11 "Hg25 mi
9:00 PM68 °FPartly sunny.8 mph38%30.10 "Hg25 mi
8:00 PM72 °FBroken clouds.8 mph38%30.10 "Hg25 mi
7:00 PM75 °FBroken clouds.10 mph31%30.11 "Hg25 mi
6:00 PM75 °FBroken clouds.12 mph27%30.12 "Hg25 mi
5:00 PM75 °FBroken clouds.13 mph27%30.13 "Hg25 mi
4:00 PM73 °FPartly sunny.7 mph33%30.14 "Hg25 mi
3:00 PM73 °FBroken clouds.13 mph33%30.15 "Hg25 mi
2:00 PM73 °FBroken clouds.14 mph31%30.16 "Hg25 mi
1:00 PM70 °FBroken clouds.13 mph35%30.18 "Hg25 mi
12:00 PM70 °FPartly sunny.15 mph38%30.17 "Hg25 mi
11:00 AM66 °FScattered clouds.10 mph46%30.18 "Hg25 mi
10:00 AM63 °FPassing clouds.14 mph49%30.19 "Hg25 mi
9:00 AM59 °FPassing clouds.12 mph55%30.19 "Hg25 mi
8:00 AM55 °FPassing clouds.5 mph67%30.19 "Hg25 mi
7:00 AM52 °FPassing clouds.9 mph72%30.18 "Hg25 mi
6:00 AM48 °FPassing clouds.5 mph76%30.18 "Hg25 mi
5:00 AM48 °FPassing clouds.3 mph76%30.17 "Hg25 mi
4:00 AM50 °FPassing clouds.7 mph76%30.16 "Hg25 mi
Weather by CustomWeather, © 2015

See weather overviewHow to use our weather pages